GFSGBSN_700_rhum_114.txt.gz
RH
18 24 33 36 46 50 61 50 68 85 84 89 87 72 76 70 66 70 79 80 91 90 78 79 87 81 77 89 94 100 100 79 64 56 45 33 21 16 13 13 14 16 21 29 29 26 14
26 31 39 42 52 56 70 49 71 87 89 92 85 53 54 58 59 56 75 87 86 94 80 72 80 93 95 66 77 98 99 84 65 57 48 37 27 22 16 14 13 13 13 14 14 13 12
30 36 41 47 55 61 77 72 55 78 84 93 82 71 53 52 56 58 62 74 85 92 78 67 76 84 97 80 76 93 100 82 67 58 50 43 35 28 22 17 15 14 15 14 13 12 11
33 38 42 50 57 66 86 92 58 55 68 89 83 65 58 56 61 64 74 94 96 90 77 66 63 71 96 96 71 80 99 85 74 61 50 46 41 36 30 26 21 19 15 14 13 11 10
34 37 42 48 58 67 95 98 84 56 65 80 70 52 53 61 67 78 79 87 89 84 77 71 58 63 88 98 100 68 99 93 76 65 54 43 37 36 33 28 25 23 17 16 15 11 11
32 36 42 46 53 60 79 100 87 68 43 37 55 42 52 52 63 65 67 74 54 64 80 88 73 79 98 100 100 94 98 94 82 66 58 50 39 31 26 22 20 18 16 18 18 17 15
26 34 42 47 49 59 61 84 75 61 51 30 29 34 39 49 72 65 75 71 58 96 95 99 98 98 96 98 85 91 96 97 91 72 59 51 42 34 27 24 21 21 18 24 19 18 15
24 28 34 44 50 51 62 60 50 43 44 36 28 30 37 63 63 69 87 82 64 83 96 96 99 95 98 98 90 99 91 98 92 72 55 42 35 31 29 28 36 42 38 25 19 21 22
26 25 24 34 47 51 54 65 53 50 48 33 29 40 53 63 59 75 84 82 83 78 97 98 97 97 98 99 97 98 94 90 97 48 42 36 39 33 33 33 31 25 24 27 29 28 22
24 26 21 22 32 46 52 55 62 62 56 41 41 52 59 60 67 70 81 85 81 84 91 97 97 98 97 98 96 97 98 82 82 48 46 45 44 40 34 27 27 24 30 32 30 27 26
21 24 22 19 23 30 46 48 53 64 58 59 49 50 62 67 71 77 77 74 76 66 87 96 96 95 98 97 97 93 81 80 56 49 46 44 37 30 28 29 34 36 43 39 37 40 35
21 20 21 21 21 22 33 41 48 56 62 57 58 63 72 77 82 77 75 74 72 64 96 97 98 97 96 97 96 96 94 75 66 51 41 36 35 35 31 31 36 41 42 56 60 59 68
21 21 20 20 21 20 22 31 30 50 57 58 58 64 67 70 71 76 78 71 69 91 98 97 99 97 91 92 83 68 62 59 51 47 43 45 47 49 48 50 49 48 48 64 74 87 78
22 21 18 18 18 23 18 21 28 30 55 59 60 59 53 51 56 56 59 69 88 99 99 97 98 99 91 93 82 64 72 60 57 50 43 52 60 59 68 66 64 54 57 75 81 97 89
16 23 24 21 18 21 22 20 21 25 28 39 56 58 54 55 53 55 58 76 92 89 83 81 82 83 81 88 88 85 66 61 60 44 57 54 75 74 85 98 75 80 83 82 85 90 97
11 18 22 24 22 20 24 25 26 21 23 26 32 43 47 51 49 51 56 71 80 81 85 82 79 69 72 69 73 73 77 54 56 54 63 68 82 90 94 90 88 85 85 84 87 91 92
10 11 17 23 22 24 24 26 32 34 26 24 27 30 30 31 31 37 49 72 80 83 85 88 73 79 80 80 83 82 62 52 51 63 74 77 74 87 96 69 61 82 85 80 82 80 92
18 9 12 18 23 21 26 27 27 33 36 32 30 35 32 36 40 47 50 55 67 65 64 72 68 74 80 80 86 79 66 70 64 68 72 77 81 72 61 76 83 82 83 72 73 74 78
16 17 10 12 17 20 19 24 27 28 32 34 34 36 40 42 45 49 55 60 63 66 65 69 76 78 75 78 72 73 71 67 66 66 69 58 70 73 79 77 82 95 82 83 77 79 78
53 22 16 10 10 15 18 17 21 22 22 27 29 32 36 39 43 46 49 51 54 55 56 55 58 64 64 62 53 47 47 49 49 53 53 54 57 53 55 60 64 72 58 63 78 84 73
49 56 28 16 13 10 13 15 14 14 16 15 15 17 16 20 25 30 33 38 38 37 39 38 43 44 44 46 43 39 38 37 37 38 39 41 35 33 27 27 40 37 38 45 54 40 67
42 48 57 34 15 17 10 12 14 13 11 11 12 10 10 11 12 15 14 18 19 20 22 24 26 27 30 32 31 34 33 32 37 38 35 33 32 28 16 17 24 24 19 20 26 30 35
37 40 48 58 47 13 18 13 10 12 13 10 10 10 12 10 12 13 14 14 15 15 17 17 18 19 19 21 19 19 20 22 25 32 38 43 40 41 26 27 25 16 8 8 9 11 11
38 39 42 50 58 56 23 14 20 10 10 12 13 12 12 13 13 14 15 15 16 16 15 14 13 12 13 14 15 14 16 18 20 22 29 42 49 52 38 27 44 10 14 15 18 13 13
41 42 43 45 51 59 58 50 16 18 22 10 9 10 12 13 14 15 15 14 12 14 15 14 13 13 13 14 14 13 20 28 30 28 25 30 45 47 47 58 16 10 10 13 11 7 8
42 43 44 46 47 49 51 56 58 42 13 19 27 21 11 9 9 11 14 12 11 11 12 13 12 12 13 14 14 14 13 17 22 24 23 29 40 55 69 65 48 11 12 12 12 9 10
35 39 42 46 49 46 47 46 46 55 56 48 22 13 20 28 27 18 15 10 11 12 11 11 12 13 12 14 16 20 25 29 28 20 19 27 36 47 67 76 19 8 10 13 17 10 12
35 46 47 47 52 50 47 47 44 42 43 45 51 52 43 22 12 14 24 24 26 23 19 14 17 15 15 16 16 18 24 23 20 18 17 19 21 26 61 76 40 12 14 17 18 19 21
27 45 56 52 59 56 52 46 44 43 45 43 38 37 41 48 47 44 36 16 15 22 26 23 23 18 16 17 20 20 19 22 20 21 19 23 17 16 17 12 12 15 17 19 21 23 26

GFSGBSN_700_rhum_117.txt.gz
RH
26 28 33 42 46 55 72 63 71 76 80 89 77 74 70 69 75 96 94 89 88 95 79 90 84 70 74 98 97 99 98 78 61 41 24 19 16 14 15 15 16 24 23 27 30 26 19
28 31 35 44 49 58 81 78 44 67 76 86 54 42 46 54 52 75 93 88 96 96 77 93 91 85 67 96 95 99 97 80 59 42 28 19 17 16 15 16 23 21 26 27 28 26 19
30 34 36 46 53 84 98 88 43 55 80 88 63 41 39 45 49 58 85 91 97 95 76 84 91 92 80 88 85 98 99 78 59 42 29 21 18 16 14 15 16 15 20 20 16 14 11
32 35 38 45 54 72 98 80 58 50 78 75 46 44 48 59 68 72 74 85 87 89 74 79 83 91 96 85 81 98 98 76 60 49 36 30 25 20 15 16 16 16 16 14 13 12 10
31 36 41 43 54 65 94 63 62 32 46 69 44 41 50 59 77 81 96 93 96 91 71 67 73 83 98 94 98 95 98 86 64 54 42 35 34 31 21 20 18 19 17 14 13 12 10
28 33 38 44 50 60 78 46 51 37 27 28 33 37 44 57 63 76 69 83 89 78 69 59 65 79 91 98 98 98 98 82 65 51 44 42 44 41 32 28 24 21 18 18 16 14 10
24 27 30 41 45 57 52 49 35 31 28 28 34 40 57 71 56 64 64 52 70 84 90 85 94 89 83 99 98 93 96 72 64 55 47 45 43 38 33 28 22 19 19 14 14 14 14
20 27 24 34 41 49 59 54 41 32 30 33 41 58 59 62 89 79 67 68 69 71 97 95 97 90 98 86 95 93 98 75 66 62 56 49 42 35 29 25 22 16 14 15 16 17 16
15 26 23 27 34 42 55 55 53 37 41 44 51 55 58 77 89 86 83 81 82 95 98 100 98 100 100 96 92 92 98 81 70 63 52 44 39 33 31 28 33 33 29 22 21 24 22
13 18 25 25 26 29 46 54 57 53 43 48 53 52 58 70 80 88 88 89 94 89 90 97 97 98 99 99 97 97 97 92 59 51 43 41 37 35 35 32 29 24 24 24 23 23 23
13 14 20 26 26 25 38 51 53 60 64 67 59 60 67 74 78 81 77 80 80 68 87 95 97 97 99 96 93 95 87 84 63 49 44 49 45 42 34 34 31 30 35 34 30 28 28
15 14 15 22 27 25 25 45 52 53 59 58 62 68 66 70 72 71 74 74 69 65 95 96 96 97 96 98 92 96 82 71 64 47 43 42 38 34 32 37 43 38 36 34 37 42 61
18 18 15 19 22 27 24 28 45 55 58 64 70 72 74 75 70 69 65 66 68 89 95 96 97 97 97 95 83 90 90 72 60 43 40 38 38 38 40 40 36 35 35 49 58 81 67
14 19 20 17 22 26 28 23 27 42 53 57 64 69 69 68 70 66 67 68 85 98 100 95 98 95 92 92 85 77 70 55 49 46 38 40 49 44 50 51 52 46 45 48 43 94 90
13 15 20 22 20 26 31 28 23 25 31 47 54 61 65 68 66 61 61 77 93 94 92 96 96 91 89 84 75 65 60 57 50 40 51 47 64 61 76 78 65 62 56 64 73 92 97
10 12 16 19 24 24 31 36 29 25 26 27 35 37 49 53 51 54 60 77 81 85 83 77 78 79 88 77 74 66 65 58 63 53 60 60 76 86 82 88 77 78 74 72 69 90 93
12 11 12 14 19 25 27 31 39 32 30 30 30 33 34 30 36 41 48 70 72 73 69 76 69 71 78 83 78 75 58 48 53 71 76 70 68 82 89 66 63 73 78 73 75 80 91
14 12 11 12 13 18 24 28 30 37 39 34 33 38 42 43 43 49 49 51 58 56 52 64 75 75 80 81 84 81 66 69 58 70 82 80 82 67 62 74 75 72 81 71 72 70 81
47 16 15 10 11 11 16 22 24 28 36 39 38 39 36 37 42 45 54 59 63 64 65 67 69 69 73 73 71 69 69 63 66 73 75 68 75 74 72 71 73 78 64 77 73 78 76
46 51 19 16 10 10 10 13 18 18 21 27 32 33 35 33 31 32 36 42 48 51 52 54 60 62 59 52 46 48 50 52 53 54 56 57 52 53 40 47 55 58 40 56 81 82 70
41 46 52 29 17 11 10 10 11 14 14 15 18 18 18 22 22 24 21 24 25 27 30 31 33 34 32 33 31 31 31 30 32 34 34 36 31 28 24 25 33 31 36 48 54 45 64
37 41 45 53 41 16 16 10 11 10 12 12 13 14 13 15 18 16 17 16 17 17 17 19 17 18 18 17 18 18 21 24 26 31 33 32 32 28 18 18 20 21 19 24 36 50 45
38 39 42 46 54 50 16 18 14 10 10 11 12 13 12 12 14 17 19 19 20 21 20 20 21 21 20 19 17 17 18 20 20 26 33 38 36 37 26 21 22 20 15 16 14 12 12
40 38 39 43 48 54 55 31 15 21 13 9 10 12 13 13 15 15 17 18 19 20 20 18 17 17 16 16 16 17 18 19 21 25 29 34 40 45 35 26 36 11 11 10 12 13 14
39 40 40 41 45 48 51 54 50 17 20 25 19 11 9 9 10 12 14 16 15 13 13 16 16 15 14 15 16 15 18 25 31 34 35 36 46 47 46 48 14 11 9 9 11 9 10
23 37 38 38 41 47 48 46 46 55 39 14 16 21 27 27 18 16 10 10 10 10 11 11 11 12 12 14 14 15 16 27 27 28 29 31 39 54 60 56 35 11 11 12 12 11 11
15 20 28 39 41 41 48 48 46 41 45 55 44 28 15 14 18 24 26 26 20 13 12 14 11 14 14 14 15 16 17 20 24 21 19 29 38 42 58 62 15 10 12 15 18 14 17
9 13 22 35 41 48 48 52 49 45 42 41 40 48 52 52 45 20 18 22 20 21 25 23 20 19 16 16 16 16 20 21 19 17 17 18 19 24 55 71 34 11 15 20 23 24 25
8 13 20 32 51 55 56 55 54 48 44 44 46 42 38 35 36 39 44 40 27 17 19 26 28 25 20 18 20 21 22 23 23 25 23 24 19 20 19 14 15 19 23 26 26 30 29

GFSGBSN_700_rhum_123.txt.gz
RH
17 23 30 38 38 29 25 12 14 56 42 32 29 30 32 40 68 86 91 94 99 98 97 96 91 75 92 98 98 99 99 95 74 46 23 23 23 18 16 19 19 24 21 21 23 28 32
16 20 31 38 40 27 26 14 21 37 30 47 43 44 42 59 66 87 89 97 97 98 97 97 93 79 99 95 97 98 99 95 73 36 22 22 21 18 17 18 23 21 21 21 25 31 34
15 18 31 39 41 26 26 20 12 37 42 32 35 43 56 80 71 81 88 97 97 96 98 90 84 78 94 96 91 97 99 95 74 30 21 21 22 22 19 17 22 22 24 26 33 34 32
14 16 29 39 42 32 26 25 18 15 16 21 28 44 50 80 71 71 88 93 90 81 89 90 94 88 95 97 99 98 98 85 50 30 28 26 26 26 22 24 24 29 30 32 32 30 27
15 16 23 39 43 42 30 28 28 28 28 34 46 56 50 74 76 85 89 87 85 73 84 96 98 97 98 99 91 95 92 62 43 42 52 35 32 26 27 25 24 36 36 32 30 28 25
16 16 17 38 43 43 36 34 32 36 39 45 52 55 63 51 74 78 81 90 81 71 63 79 89 98 98 99 99 96 94 58 46 54 50 39 27 26 28 26 29 35 29 29 24 24 20
15 19 16 25 43 43 44 36 39 38 48 59 70 70 44 42 64 73 75 80 76 73 56 58 87 98 98 99 99 92 96 66 46 45 45 38 26 27 27 26 18 20 15 22 15 13 12
14 20 18 18 40 45 44 41 40 44 46 55 58 46 44 49 49 58 58 63 63 72 61 85 92 96 94 92 98 97 94 64 44 45 47 38 26 26 24 20 18 16 15 14 14 14 14
15 20 23 18 23 46 46 47 41 47 52 56 61 60 62 68 65 74 77 73 75 76 97 100 98 96 98 99 100 96 90 64 54 46 45 44 38 33 30 24 25 22 20 20 17 15 13
19 18 25 23 18 34 45 49 51 49 52 55 58 57 57 67 75 78 80 81 85 85 79 98 92 98 99 96 99 96 67 59 53 47 48 45 41 38 35 31 28 20 20 18 16 15 15
20 20 24 30 21 21 34 47 56 59 62 57 60 64 66 70 68 66 65 67 68 67 87 91 96 97 100 90 93 94 65 58 53 49 45 48 41 35 30 27 24 21 21 19 18 18 20
18 22 21 29 32 23 24 34 46 61 65 70 71 70 70 69 71 72 68 69 67 66 95 94 96 97 99 97 84 89 78 55 49 45 43 40 39 34 28 26 23 21 22 24 23 24 42
15 20 24 24 31 33 27 28 36 42 62 67 71 71 69 71 70 67 68 63 66 88 95 98 99 98 96 96 87 68 58 50 46 50 44 43 39 35 32 30 27 25 25 29 49 55 59
12 16 21 25 26 33 33 32 32 35 39 52 60 67 68 66 65 67 68 66 81 99 100 97 98 95 89 86 85 80 56 46 42 40 40 38 46 37 36 32 31 29 29 32 44 53 70
11 13 16 20 25 26 32 34 33 36 40 44 47 55 59 59 57 56 58 74 92 92 88 93 90 87 89 86 78 75 64 53 42 37 38 41 58 50 43 40 40 36 36 41 41 74 84
17 12 12 15 19 24 26 31 34 34 38 43 42 40 47 54 54 52 54 79 86 85 81 78 81 73 76 74 68 72 70 58 43 42 40 46 56 68 56 48 43 52 49 53 41 71 69
49 19 13 11 14 17 21 23 30 32 32 35 43 47 46 37 41 48 59 72 77 77 75 73 64 65 62 54 49 50 56 55 44 40 43 42 47 72 64 52 51 49 55 50 60 68 76
41 50 27 16 11 12 15 17 19 24 28 28 29 36 49 50 46 44 50 63 67 62 61 64 59 59 62 61 59 49 48 48 42 47 50 45 49 62 62 59 59 64 62 63 55 66 72
35 40 48 41 17 12 12 13 14 15 16 19 22 22 25 34 48 58 64 62 59 58 57 59 63 64 67 66 62 56 49 43 52 58 54 60 58 63 66 64 62 65 53 58 58 60 64
30 36 39 44 51 18 14 11 12 12 12 12 13 19 17 16 17 25 37 52 61 64 62 62 66 68 60 59 58 58 61 65 65 65 66 57 51 48 39 39 45 50 41 49 61 73 61
23 34 37 38 39 53 28 17 12 12 12 12 12 12 14 14 13 13 12 17 24 32 38 40 40 41 40 43 44 46 43 53 51 51 52 47 37 33 30 29 28 27 32 38 40 33 49
13 30 34 32 38 40 53 50 18 17 11 11 12 12 13 13 14 15 14 13 12 12 14 18 21 22 22 25 26 29 33 34 35 36 36 36 32 25 16 16 17 16 14 16 19 24 25
8 17 31 30 37 40 41 48 54 30 20 16 11 12 14 14 15 15 16 16 17 16 15 15 15 16 16 17 18 19 19 21 23 25 30 36 30 26 22 24 19 18 15 14 14 13 15
8 8 17 29 33 31 37 42 43 51 44 20 22 15 12 11 12 13 16 17 18 16 15 15 16 14 13 15 16 17 20 22 22 23 24 25 26 26 27 23 29 13 12 13 15 16 17
12 8 8 15 25 25 33 38 44 43 46 54 35 20 25 25 22 17 12 11 13 18 16 14 15 16 16 16 17 15 17 20 22 21 22 24 28 38 42 40 19 18 17 17 18 20 19
14 12 8 8 13 18 25 31 41 46 44 42 47 52 46 28 22 20 23 24 16 17 17 12 14 14 15 17 17 16 16 22 25 25 27 32 36 38 44 45 23 16 17 18 19 21 17
15 14 10 8 8 10 12 22 36 44 48 45 42 41 41 44 43 47 37 21 18 20 22 19 21 17 21 18 16 17 17 20 22 21 20 26 36 42 50 39 20 17 20 24 26 23 27
15 15 12 10 8 8 11 14 38 45 48 50 46 44 44 43 41 40 38 40 39 37 30 25 21 24 23 18 18 17 18 20 20 19 21 21 23 27 44 57 30 19 26 32 34 39 38
16 16 14 11 10 8 9 9 31 43 52 53 52 52 50 46 44 41 38 38 38 39 35 25 20 26 30 23 20 22 22 24 27 25 25 26 23 21 23 22 24 26 30 34 41 43 39

GFSGBSN_700_rhum_126.txt.gz
RH
11 16 31 31 28 23 23 20 12 35 29 28 29 35 44 61 59 83 96 98 92 79 72 71 65 92 86 89 93 99 99 90 83 74 38 23 21 20 19 18 19 26 19 18 19 21 24
12 14 32 33 30 25 26 24 19 17 30 32 30 40 58 75 61 94 97 98 94 97 96 96 96 90 84 70 70 97 100 99 94 69 36 26 26 22 21 22 23 23 20 20 21 25 29
14 14 28 34 33 28 29 28 27 26 22 27 34 45 72 68 66 95 97 96 97 98 98 97 93 90 94 96 96 96 94 98 87 57 30 28 29 29 26 22 27 21 23 22 24 30 34
17 14 22 36 35 30 30 32 35 37 40 46 51 46 69 68 70 89 88 69 80 90 96 94 92 95 98 99 89 96 98 97 65 38 28 31 32 32 29 29 28 24 26 29 34 34 33
18 16 18 38 36 34 31 37 36 47 56 61 52 51 58 71 68 69 80 64 74 93 93 94 98 97 99 92 90 81 97 96 57 42 38 33 44 38 34 28 27 34 37 34 35 34 31
18 20 17 32 38 37 33 38 41 46 53 53 32 39 47 64 59 60 73 67 62 77 77 85 90 97 100 98 88 97 95 98 77 55 58 55 48 40 36 31 42 40 34 30 30 29 28
18 23 18 24 37 38 38 37 46 45 50 46 46 39 52 60 64 65 62 67 56 65 71 94 96 98 100 99 98 96 98 99 77 64 50 62 44 51 44 34 25 24 26 26 27 26 27
16 24 22 21 28 36 42 44 46 48 47 53 63 60 56 62 62 59 58 53 59 81 97 99 98 96 98 93 89 96 98 91 65 50 41 40 36 38 33 29 25 27 24 27 22 18 18
19 22 27 21 23 29 40 49 53 54 53 50 66 67 64 63 67 76 70 67 82 81 95 96 97 99 98 98 99 93 78 85 58 40 34 36 38 35 26 20 19 24 20 20 17 14 13
20 19 29 26 24 26 29 47 55 63 64 60 60 63 71 64 62 61 65 73 80 79 91 96 95 98 98 100 98 88 67 59 48 42 38 34 32 30 25 22 21 18 19 18 17 14 31
17 21 23 32 28 28 29 31 42 57 66 71 70 69 69 71 69 59 59 63 69 64 84 95 97 97 96 93 95 85 57 47 43 44 41 44 44 42 35 28 24 23 20 17 14 12 13
13 18 22 26 32 32 32 32 35 34 57 68 73 76 79 77 74 66 57 64 67 70 93 96 99 100 98 84 74 67 57 48 47 45 42 41 38 34 31 28 24 22 17 15 16 18 45
11 13 19 22 27 33 36 36 39 39 34 53 68 69 71 70 62 64 64 62 68 93 95 97 98 93 98 90 64 57 53 50 47 48 44 43 38 33 28 25 21 18 20 50 66 56 51
13 12 13 17 22 28 33 35 40 41 42 34 49 62 68 66 67 66 61 62 90 99 97 96 97 95 80 72 61 51 45 42 41 38 39 39 54 36 32 27 28 24 25 55 81 42 49
30 14 12 12 15 19 27 33 34 38 42 42 32 48 60 58 55 54 57 67 95 90 90 90 87 86 82 79 65 50 44 42 43 37 33 39 55 42 36 30 30 29 29 34 33 45 57
44 38 16 11 12 13 16 25 31 32 34 42 43 32 44 54 52 54 52 67 72 72 75 78 86 79 87 74 71 60 62 40 37 36 34 37 64 57 43 38 40 36 37 47 36 60 44
33 43 44 17 11 11 12 14 19 26 28 28 36 40 40 34 51 55 62 78 84 80 74 72 64 66 63 62 66 62 62 48 36 40 40 42 40 68 55 44 45 40 44 41 42 54 49
30 34 41 49 18 11 10 10 12 14 18 20 22 27 35 42 33 40 62 77 79 83 82 80 71 68 62 52 48 50 54 52 40 40 42 38 43 85 63 48 45 43 42 44 49 62 65
25 33 35 42 51 22 14 10 10 10 11 13 15 21 23 20 31 44 46 46 49 53 58 63 62 54 53 49 48 45 47 47 45 49 49 47 46 78 60 59 53 50 41 42 46 47 66
12 28 34 33 40 53 38 17 12 10 11 11 11 16 16 17 16 18 23 39 48 51 50 54 62 64 63 66 62 55 44 49 56 57 57 53 46 46 41 49 46 46 41 46 60 70 55
7 16 32 28 35 41 52 50 23 16 11 12 11 12 13 15 15 15 16 14 17 22 28 32 35 36 39 47 56 58 57 61 59 60 58 55 45 44 43 40 38 38 39 39 45 42 50
8 8 18 28 31 32 39 45 51 35 18 13 12 13 13 13 14 17 17 17 18 17 16 18 17 16 20 22 22 28 32 42 41 43 42 36 28 23 18 17 17 15 17 20 22 26 26
11 8 8 17 27 24 22 34 41 47 43 20 18 12 12 14 14 15 16 17 18 19 19 19 19 19 19 19 19 18 18 19 19 23 27 30 27 22 24 23 22 23 13 15 14 14 16
11 11 8 8 15 22 16 26 32 40 43 50 30 21 22 19 13 12 14 15 17 17 17 18 20 20 19 20 20 20 22 22 20 19 19 20 23 24 25 25 34 16 16 17 18 18 18
11 11 11 8 8 11 15 14 23 36 38 41 46 47 28 20 23 23 18 14 14 14 16 14 13 16 18 18 20 20 21 22 20 20 22 24 27 26 34 30 19 15 15 16 17 16 14
11 12 12 11 8 8 10 10 12 22 41 42 41 42 42 49 37 24 20 23 22 19 21 15 13 14 15 17 17 18 23 25 27 27 25 25 27 31 37 48 16 16 15 15 19 21 18
13 13 13 12 10 9 8 8 11 17 34 45 45 43 43 43 41 41 47 33 25 21 24 22 21 21 20 20 18 17 18 17 22 20 21 28 33 41 52 48 20 18 19 21 29 23 22
14 13 14 14 12 10 9 8 9 11 26 36 45 47 45 46 46 40 42 39 40 39 37 30 24 22 26 22 17 17 17 18 20 18 18 22 24 29 37 41 36 22 24 30 32 33 36
16 15 14 15 14 11 10 8 8 9 26 37 45 49 51 50 49 48 46 42 37 38 41 36 24 24 28 28 20 20 21 22 25 28 28 27 25 25 25 27 22 21 23 31 36 41 43

GFSGBSN_700_rhum_132.txt.gz
RH
17 15 15 17 24 30 28 32 31 24 15 20 28 49 47 88 69 93 96 96 92 95 87 95 94 94 79 87 80 71 63 93 98 99 79 32 40 32 73 29 28 39 31 35 28 24 14
19 16 16 16 24 34 30 34 31 31 13 19 30 47 43 54 67 74 97 95 88 86 94 93 95 86 78 93 79 87 74 96 99 100 86 30 49 56 66 55 32 32 27 27 21 15 14
20 18 18 17 22 37 35 36 32 36 21 21 33 44 50 55 67 67 91 99 98 80 82 88 74 71 96 96 83 73 90 93 92 100 82 33 69 83 64 68 52 38 26 19 17 18 22
20 20 20 19 19 36 42 38 36 44 30 34 38 41 48 50 63 65 92 90 98 98 95 91 81 82 97 97 84 74 86 98 92 98 76 77 86 82 69 66 53 35 25 22 20 21 24
20 22 22 23 20 31 46 45 42 43 46 35 42 43 46 46 56 66 62 78 89 99 97 98 83 70 98 90 76 67 70 94 100 100 54 94 94 77 73 54 44 41 27 31 26 26 26
18 23 23 25 25 24 40 51 46 46 52 48 44 42 46 49 51 64 61 60 68 79 84 99 98 99 98 93 86 86 66 89 100 98 77 95 87 66 60 53 41 35 36 39 28 26 27
18 22 24 26 28 28 29 50 56 50 51 50 48 55 53 57 48 48 54 55 84 89 93 96 94 98 98 99 100 91 84 92 98 94 75 83 70 52 46 50 36 24 40 38 29 22 24
17 20 26 26 30 32 30 37 58 62 54 52 56 66 68 67 78 75 81 90 95 97 98 91 96 98 98 98 96 98 93 96 94 95 87 79 59 52 47 48 42 36 42 43 34 27 27
12 18 21 29 29 34 37 34 46 63 65 63 58 57 58 64 73 81 75 81 89 95 96 98 98 99 97 99 100 100 98 98 98 90 77 61 58 52 48 46 43 39 40 36 30 28 29
11 13 18 22 31 32 37 42 36 52 61 66 73 64 58 55 59 61 66 79 93 93 94 97 97 98 98 98 98 97 96 96 95 76 71 64 58 51 48 38 39 38 41 39 28 26 28
11 12 12 17 25 30 33 42 42 38 56 59 66 67 61 58 60 59 65 67 69 78 92 96 97 97 97 94 92 97 97 88 70 74 54 53 50 54 40 42 40 38 41 31 20 33 26
24 11 11 12 16 26 28 34 44 36 42 54 56 60 59 59 60 59 60 64 74 93 96 97 98 97 97 97 95 89 96 88 74 56 51 60 57 45 37 42 39 25 18 20 30 18 42
42 24 12 11 11 16 27 25 35 42 31 47 52 53 54 51 52 53 57 63 82 88 96 98 98 97 94 94 86 74 76 70 69 67 52 49 38 28 27 26 22 20 24 61 58 46 84
31 44 23 11 10 12 15 25 23 33 39 27 48 50 52 54 53 54 63 64 86 97 99 99 94 93 94 93 83 75 70 63 63 43 49 43 50 37 31 37 38 40 45 59 68 78 87
26 34 44 23 11 10 11 14 19 18 32 33 32 50 46 48 49 56 53 68 97 91 98 98 99 90 83 70 75 94 77 66 60 51 52 52 51 41 34 33 31 30 26 31 38 33 45
23 29 34 44 21 11 10 11 15 14 15 29 29 38 46 49 44 45 44 69 91 80 85 92 86 90 78 80 78 71 65 49 64 48 44 50 56 65 30 25 31 23 29 28 34 68 55
16 27 28 32 46 22 11 10 11 13 12 12 27 28 38 50 46 44 47 65 71 71 68 74 83 85 73 68 70 69 67 52 44 36 35 50 40 57 31 28 32 23 25 37 45 42 83
10 20 27 23 36 48 26 12 10 10 12 12 12 17 36 31 37 48 51 55 60 61 61 66 70 79 76 68 72 73 64 56 39 39 53 55 53 50 57 36 40 32 52 38 42 52 40
7 10 23 22 31 38 49 32 14 11 10 11 12 12 15 30 36 33 43 55 52 52 51 56 58 67 63 64 69 70 48 38 44 39 45 55 63 60 51 38 27 30 32 34 47 52 49
9 7 10 20 24 29 36 45 37 17 11 11 10 13 15 15 16 26 40 54 60 60 58 53 55 53 55 55 52 53 45 40 36 41 44 55 64 66 54 56 40 27 26 30 37 46 38
12 9 8 12 18 23 22 33 42 40 19 12 11 12 13 14 16 16 20 25 26 33 48 51 60 75 73 69 59 43 39 43 42 42 40 41 56 54 53 40 41 42 41 37 36 30 47
12 11 8 7 9 19 19 25 32 41 41 22 13 12 13 14 15 16 18 20 21 21 20 26 32 35 56 65 61 60 53 46 50 42 43 48 39 37 36 34 34 31 32 38 39 36 35
13 12 11 8 7 10 18 16 22 35 42 46 34 19 16 14 12 14 17 17 18 19 18 19 18 19 18 19 26 33 43 50 43 42 46 42 30 22 42 28 16 15 9 12 16 19 22
21 13 12 11 9 8 10 13 14 20 36 41 43 42 26 24 21 18 14 14 15 17 17 16 17 18 18 16 18 18 18 18 19 19 23 22 24 20 20 20 49 17 15 12 10 10 12
18 22 13 12 11 9 8 8 11 11 17 40 44 42 44 45 30 24 21 21 19 15 16 17 17 15 17 18 19 19 20 17 16 17 17 19 23 34 28 44 27 20 16 13 14 18 15
24 26 23 12 12 12 10 8 8 10 13 28 42 46 44 45 42 42 43 37 21 22 20 21 18 16 16 18 20 34 37 42 30 21 16 20 25 32 55 46 39 24 18 15 16 14 14
26 29 29 20 12 13 13 11 9 8 10 14 28 41 46 46 46 47 45 43 40 34 31 27 25 21 22 22 25 31 31 18 28 26 20 20 21 21 33 46 31 25 18 16 14 22 18
19 24 28 27 16 13 14 13 11 10 9 10 17 32 42 47 49 49 44 48 45 42 42 39 35 28 24 28 30 38 22 29 21 30 20 20 21 26 41 60 34 22 20 16 18 22 26
21 19 22 26 23 15 15 14 14 11 10 10 10 21 31 39 45 49 52 52 52 46 42 42 40 27 27 31 28 23 22 22 26 38 30 29 29 39 28 30 30 25 22 20 18 20 21

GFSGBSN_700_rhum_135.txt.gz
RH
17 18 20 19 16 28 36 37 35 35 20 20 25 32 35 50 53 73 98 95 84 90 84 80 84 86 94 97 97 64 39 79 94 99 97 53 18 30 61 27 24 29 29 41 41 34 31
18 19 21 22 18 25 38 41 40 38 26 28 27 33 45 55 53 65 90 91 79 84 84 90 97 96 97 98 93 77 50 75 95 99 99 44 21 40 61 30 34 27 26 38 39 32 28
19 18 21 24 23 21 37 45 43 40 36 30 29 30 42 44 52 50 74 82 89 89 88 92 93 97 97 98 97 86 70 74 98 99 92 42 68 77 79 67 40 26 21 33 34 31 25
18 19 20 25 27 22 32 46 48 45 44 37 32 35 40 46 51 46 54 72 84 92 85 89 85 90 99 98 96 82 84 67 71 100 80 38 83 78 75 73 62 38 27 27 28 22 20
17 20 20 23 29 29 26 45 50 49 50 39 42 37 37 40 42 49 51 60 73 89 93 89 80 87 97 95 86 80 77 87 82 99 91 82 86 85 79 71 59 46 27 25 21 23 23
16 18 22 21 28 33 29 36 52 54 54 55 46 32 35 43 42 50 57 59 87 82 95 96 96 87 93 85 84 73 74 91 88 88 99 95 87 81 75 70 52 45 41 28 21 22 24
12 16 20 23 23 32 38 30 53 56 59 60 58 56 59 68 64 80 84 88 88 99 99 96 96 97 99 82 83 72 76 74 95 96 97 93 74 73 67 60 40 32 29 22 25 21 22
10 13 16 21 22 25 38 35 42 59 65 66 63 61 59 62 71 75 82 82 92 96 98 100 100 98 99 99 96 86 74 77 92 90 97 83 79 64 54 43 43 34 41 32 26 22 24
10 10 13 16 23 20 32 41 34 56 62 65 65 61 60 62 64 66 73 89 93 95 97 98 98 97 98 98 97 100 90 78 97 96 98 77 63 49 52 45 44 40 43 28 27 29 30
16 10 10 14 19 20 23 40 37 44 59 57 62 62 55 58 62 60 64 69 84 92 94 97 95 99 98 98 99 100 91 97 99 96 96 64 55 56 50 51 44 45 43 33 28 27 27
33 14 9 10 14 21 16 30 43 34 55 57 54 58 52 56 61 62 62 68 78 86 92 97 98 98 98 97 98 98 98 96 96 97 70 62 57 52 49 46 41 44 41 38 28 26 28
37 31 12 9 10 13 17 20 36 42 36 55 55 52 52 48 55 57 59 71 84 80 95 97 98 98 96 99 99 97 98 96 86 78 57 59 56 48 46 44 43 44 38 28 32 28 39
30 39 26 10 9 9 13 15 19 40 41 40 53 51 49 49 51 56 62 70 66 88 96 96 98 96 95 96 97 98 93 93 87 67 60 60 51 46 46 45 37 35 28 36 32 41 55
26 30 42 23 10 8 10 12 12 19 40 37 47 50 49 49 52 57 59 58 80 98 95 96 98 97 94 84 94 94 98 87 67 57 52 46 63 40 37 33 29 26 28 22 45 71 68
23 25 31 43 21 10 8 10 12 12 21 41 35 48 45 44 50 52 55 57 80 85 91 90 87 92 94 82 86 88 68 72 66 47 46 46 51 48 35 27 28 31 44 43 40 51 47
18 24 20 34 46 21 10 8 10 12 12 23 36 36 43 50 51 51 47 67 76 84 88 89 97 79 82 84 81 67 64 61 58 46 46 44 47 50 44 33 29 30 27 28 43 56 54
11 20 21 21 36 48 23 11 9 10 12 13 15 32 31 41 51 50 54 71 72 70 75 86 91 83 86 89 75 69 58 56 54 54 48 46 32 44 36 30 24 24 24 33 34 47 81
8 16 24 19 26 38 49 29 13 10 10 13 13 14 32 39 33 44 52 58 63 66 72 77 79 72 69 74 72 65 55 55 60 52 48 51 42 36 40 50 30 23 24 34 35 45 44
10 10 18 22 20 25 35 48 34 17 11 11 14 13 13 18 37 35 37 41 48 54 54 58 77 68 61 61 66 67 54 47 51 42 59 59 54 58 51 46 48 29 29 27 34 44 41
12 9 10 17 18 19 20 34 44 37 18 11 12 14 17 16 16 21 37 45 48 48 51 51 52 58 55 54 58 62 46 41 46 52 49 57 56 48 30 27 23 25 20 29 34 38 40
12 12 9 11 15 17 17 23 34 42 36 19 12 13 14 19 19 17 18 22 23 37 45 46 57 62 69 67 59 54 44 40 40 42 45 45 52 57 46 48 36 22 18 24 28 31 32
16 12 12 9 10 14 14 16 26 34 40 42 23 14 14 15 18 22 21 18 18 18 19 21 26 36 63 58 56 46 46 43 43 42 39 40 40 46 46 40 36 31 32 33 34 33 34
12 16 12 12 10 9 10 13 16 23 34 40 43 31 21 21 16 18 23 21 21 21 20 22 20 18 21 21 47 52 58 51 47 42 40 45 40 26 28 31 26 20 21 21 20 22 24
4 18 15 12 12 10 9 9 12 14 16 33 40 42 43 36 24 22 21 17 20 21 21 20 22 22 20 18 18 19 25 32 44 32 39 36 30 20 17 18 30 14 14 13 14 13 18
9 6 21 17 13 12 11 9 9 11 11 19 34 40 42 43 39 33 29 23 22 20 18 20 20 17 18 20 21 18 17 15 16 18 18 22 19 18 21 30 17 12 18 16 11 14 10
24 15 12 24 20 13 13 12 10 10 10 12 22 30 40 43 44 43 46 44 27 25 24 22 21 18 17 19 21 26 34 40 33 19 17 19 18 21 34 28 40 22 17 14 13 12 12
17 25 24 24 27 21 14 14 13 11 10 10 11 18 30 40 44 48 49 45 44 40 36 34 28 24 22 21 22 25 28 23 25 26 24 24 25 22 27 34 17 20 26 17 18 15 14
48 18 24 28 30 30 20 14 15 14 11 10 10 11 20 30 40 47 46 48 51 48 46 43 39 30 25 24 28 26 23 24 17 21 24 20 18 21 24 30 27 22 25 18 15 17 21
98 77 20 20 28 31 29 17 14 16 15 12 10 9 10 16 27 36 46 52 54 55 47 42 41 38 27 30 30 25 22 22 22 24 28 26 19 25 21 23 22 29 24 22 21 19 23

GFSGBSN_700_rhum_138.txt.gz
RH
16 16 17 22 24 22 22 28 42 42 38 28 24 26 35 38 41 46 70 65 80 76 87 82 81 88 92 92 94 98 82 78 97 98 99 72 19 34 57 38 36 43 29 41 34 35 35
16 16 17 20 24 26 21 26 45 44 43 35 30 25 36 41 41 45 59 78 82 74 84 86 90 88 90 97 98 98 84 69 96 100 98 66 25 55 70 52 43 41 37 44 43 39 39
14 17 17 18 24 30 23 26 46 47 47 36 37 33 33 38 36 48 54 74 94 81 80 88 98 96 97 98 98 90 66 60 86 98 93 50 40 63 71 51 49 36 41 45 44 40 37
14 15 18 18 23 31 26 28 47 49 50 48 34 33 37 38 38 52 50 62 77 86 80 89 97 97 98 98 97 98 61 50 75 100 96 53 64 78 74 62 60 34 39 44 45 43 38
11 13 18 19 21 30 31 28 47 50 54 54 55 43 42 41 51 66 73 78 83 80 82 83 84 95 94 96 97 90 92 63 59 98 90 77 83 83 80 70 58 44 34 38 40 38 34
9 11 15 21 19 27 35 26 46 50 57 58 59 58 58 67 74 76 81 89 91 89 86 89 81 88 88 95 93 85 83 89 76 93 96 98 93 85 79 73 56 50 34 33 31 31 24
9 9 13 18 20 23 36 32 39 49 58 62 62 59 59 61 67 76 81 95 87 92 99 97 85 85 74 92 93 81 83 96 91 94 100 99 90 78 76 72 46 37 26 23 25 24 22
11 9 10 14 20 19 30 38 32 48 54 61 62 61 59 60 62 65 72 88 86 87 95 95 90 100 100 82 89 84 81 95 77 92 97 92 83 76 71 66 47 39 22 22 22 20 21
22 10 9 12 16 17 23 39 33 44 51 58 59 57 57 58 58 60 67 69 90 85 94 99 97 99 100 95 99 99 90 85 83 70 96 88 80 71 67 53 44 43 32 23 20 23 27
32 20 9 10 12 18 18 28 41 31 48 53 56 52 52 54 59 65 65 68 83 87 86 96 96 99 96 98 98 98 97 84 78 82 98 87 70 66 60 49 47 43 48 28 22 23 27
28 33 16 9 10 12 18 21 30 41 35 49 54 56 53 53 58 61 64 82 83 81 87 98 98 98 96 97 96 98 100 71 93 92 83 72 65 52 50 44 49 41 45 36 29 29 24
22 30 31 12 9 10 12 17 20 29 38 44 49 51 52 53 55 60 65 67 80 70 94 98 96 100 98 98 98 98 99 98 99 99 70 62 57 54 52 50 48 42 46 39 32 28 41
19 24 32 29 11 9 10 12 16 18 34 33 48 48 50 54 64 71 75 80 77 85 91 100 98 98 90 96 98 98 98 98 96 94 66 63 56 52 50 50 48 45 37 34 40 45 54
17 21 20 35 27 11 9 10 13 13 20 36 42 47 47 53 58 62 68 69 83 100 98 100 97 96 96 95 97 94 96 96 85 77 64 57 61 52 50 45 45 39 29 23 40 59 68
15 20 18 23 40 27 12 9 10 13 12 24 33 39 50 52 58 59 62 68 85 77 82 88 91 90 95 97 94 96 87 70 74 84 55 54 57 51 46 42 41 41 30 41 37 59 40
9 17 22 18 30 44 30 13 10 10 12 12 27 38 40 50 57 55 55 72 89 84 81 83 81 82 88 87 88 79 75 72 66 56 48 41 52 53 44 36 36 36 32 41 43 57 43
8 11 22 19 24 36 46 36 15 12 11 12 12 22 38 44 53 56 58 70 82 84 85 87 77 80 85 76 73 67 64 68 60 50 49 37 37 52 40 37 30 29 29 31 36 46 74
12 8 15 21 20 26 35 44 37 18 12 10 13 15 23 34 41 52 56 62 67 79 86 86 80 74 75 77 74 67 59 62 54 53 49 45 38 44 41 34 27 32 27 30 30 38 49
13 10 10 18 20 20 20 33 44 35 18 12 11 15 14 24 39 40 44 50 57 63 65 77 75 70 71 71 69 66 55 61 57 54 60 54 48 42 38 40 38 27 25 22 27 34 32
14 12 9 10 16 18 18 23 34 42 32 17 12 12 17 16 18 32 42 49 56 59 58 58 70 68 60 63 63 63 48 55 64 55 62 63 49 41 35 33 31 29 22 23 25 35 34
6 15 11 9 10 14 17 17 25 32 41 34 19 14 14 17 18 18 20 23 30 46 56 58 57 63 64 60 59 54 44 40 44 50 53 55 51 44 30 33 29 26 21 20 19 19 30
6 12 14 12 9 9 12 17 14 20 31 41 39 23 17 16 16 23 22 20 19 20 23 37 46 54 61 57 56 46 43 38 40 43 44 44 49 56 56 47 45 42 24 20 22 25 26
9 5 17 13 13 10 9 11 12 12 18 32 40 40 30 31 20 19 17 19 22 21 19 18 20 35 38 37 59 56 50 49 48 44 42 42 41 33 35 36 33 28 28 27 23 20 20
15 6 8 18 13 12 11 9 8 10 10 16 34 41 42 41 30 24 24 20 19 20 20 20 19 23 22 21 26 28 50 56 52 45 46 44 40 29 18 28 26 18 16 16 20 21 20
27 16 4 13 19 14 13 12 9 8 8 10 23 36 43 43 41 41 43 35 24 22 20 21 21 19 19 20 22 22 22 20 19 31 30 42 35 22 20 21 12 12 15 16 13 10 11
21 28 19 5 15 22 16 13 12 10 8 8 11 20 35 40 42 44 47 44 35 30 27 23 23 21 19 20 22 22 28 25 27 19 18 19 23 24 28 25 26 22 18 15 18 13 11
22 19 25 21 10 18 26 20 14 12 10 9 9 10 21 34 42 45 47 45 44 43 39 38 33 28 23 23 24 26 26 27 25 25 22 22 23 21 22 22 11 14 17 18 15 12 10
94 48 18 24 25 22 25 29 21 14 13 11 9 10 12 19 28 38 45 44 49 50 50 46 42 32 28 25 29 27 26 27 18 21 26 19 16 18 24 24 17 16 20 17 14 13 14
100 97 56 20 21 26 27 30 31 21 15 14 12 10 10 13 19 21 28 42 48 51 53 46 42 39 28 29 31 27 23 23 24 24 25 24 18 21 17 18 18 24 24 23 22 22 20

GFSGBSN_700_rhum_141.txt.gz
RH
12 14 14 15 20 26 21 29 40 42 43 38 32 26 23 26 30 33 37 51 67 69 73 76 70 68 76 80 66 60 57 89 90 93 99 92 80 31 28 38 52 54 26 20 16 38 38
12 14 15 15 19 27 22 34 38 43 45 42 40 25 28 29 28 33 40 47 66 83 75 81 82 83 85 87 80 92 72 89 84 99 99 95 47 34 35 41 70 59 38 34 23 31 34
12 13 15 15 18 28 24 34 38 41 48 46 45 30 27 28 34 42 50 50 65 82 86 87 88 96 96 98 85 96 99 96 97 97 98 88 45 66 53 69 69 56 46 46 36 37 39
10 12 14 16 16 26 28 30 36 42 49 49 47 42 44 51 56 64 69 75 79 90 92 97 93 97 98 98 98 98 98 98 98 96 97 98 98 92 70 69 68 55 52 52 51 46 44
9 11 13 15 16 22 32 27 39 41 47 50 51 52 44 51 59 63 74 84 81 88 93 79 82 90 97 95 98 94 93 95 97 88 96 97 99 95 64 62 68 55 51 51 52 47 43
10 10 12 13 17 18 32 28 37 42 45 47 53 55 55 53 55 62 68 90 83 98 97 93 84 90 86 95 95 94 87 84 93 98 95 98 98 95 75 64 63 51 44 47 50 50 45
15 10 10 12 16 16 24 34 29 42 44 47 48 53 58 60 63 68 75 91 85 91 99 98 93 91 82 89 95 94 94 76 64 90 97 98 89 90 60 52 42 45 35 42 43 46 43
26 15 10 10 12 17 16 32 31 38 45 48 50 53 54 57 61 68 73 90 92 90 82 85 100 100 88 99 93 97 87 99 77 72 96 93 84 83 74 69 50 41 28 34 32 32 28
30 28 14 10 10 12 18 17 36 30 43 48 50 51 54 57 62 69 70 82 98 90 97 95 92 94 96 91 99 98 94 97 91 90 93 97 86 80 75 66 50 38 28 26 24 25 24
23 33 27 13 9 10 13 16 18 37 31 45 49 50 53 53 62 64 68 76 85 92 92 99 98 96 97 85 99 100 96 99 100 89 96 94 87 78 72 58 49 40 31 22 19 19 23
20 27 35 26 11 9 11 13 14 21 37 40 47 48 50 52 58 62 66 88 91 99 89 93 98 98 90 89 89 90 98 98 95 100 94 91 80 76 72 57 48 42 40 31 24 23 21
16 24 32 35 23 10 10 10 13 14 29 32 44 45 49 54 62 71 67 79 79 78 93 93 98 98 98 97 94 95 97 99 100 97 94 88 74 71 66 60 49 41 49 40 35 30 38
12 18 25 34 37 22 10 10 10 13 16 34 37 45 48 56 58 65 71 79 84 89 95 95 98 98 98 98 97 99 100 99 99 91 79 96 66 61 59 54 52 45 45 38 49 51 62
9 15 20 23 36 41 21 11 10 11 13 23 33 36 47 55 60 64 64 71 89 99 100 100 96 100 97 97 98 99 100 98 86 72 72 64 71 61 58 53 54 53 36 32 52 59 61
10 12 18 20 27 39 45 21 11 11 12 14 28 35 44 52 53 55 58 59 80 94 86 92 90 94 95 95 96 90 98 94 86 69 59 59 62 59 55 51 51 48 36 38 30 48 48
12 9 15 22 21 32 42 47 22 12 12 13 16 27 37 50 52 54 60 66 72 79 81 84 83 83 94 88 87 86 93 93 78 68 57 54 56 59 52 49 48 43 38 39 40 60 36
8 11 11 21 21 26 28 41 44 21 13 13 14 20 30 45 55 59 63 75 77 84 93 88 81 75 75 80 76 71 74 82 89 74 58 44 48 59 49 45 44 44 40 34 40 40 70
4 13 10 14 23 21 20 27 43 38 18 13 15 15 18 30 42 50 57 67 74 79 86 89 74 77 79 77 73 65 71 69 80 62 53 50 43 51 46 38 37 33 35 29 32 37 52
5 11 12 10 17 19 20 18 33 43 29 15 14 15 14 15 34 44 46 54 66 75 76 73 74 76 75 74 72 66 59 59 63 54 63 52 44 49 48 41 35 31 27 26 27 32 39
8 5 15 12 10 16 18 17 24 32 42 29 17 15 17 16 16 28 39 54 57 58 66 74 70 71 68 66 66 65 64 60 58 59 60 60 49 35 32 30 31 29 24 23 24 32 28
13 5 12 14 11 11 13 17 16 21 34 40 30 18 16 15 17 17 18 24 45 58 59 59 68 66 62 63 61 63 48 63 58 55 57 61 54 52 41 32 30 30 27 24 25 23 21
18 11 6 16 14 11 9 12 14 15 20 32 40 31 22 19 16 21 21 19 21 24 33 46 60 68 68 61 60 49 43 52 55 46 44 44 52 45 44 40 40 28 27 29 23 23 25
23 15 8 10 16 14 11 9 10 13 12 17 31 40 38 38 22 21 19 19 20 22 23 23 27 48 59 58 56 51 47 42 40 41 43 45 42 40 43 41 44 38 22 19 19 16 13
33 20 12 5 17 15 13 11 9 9 11 10 22 35 42 42 34 30 28 22 20 20 21 22 23 23 22 27 51 52 58 55 54 48 46 43 44 36 22 32 38 22 19 19 19 15 16
35 33 18 8 5 20 15 13 12 10 9 10 11 23 34 41 43 43 46 38 24 23 21 21 22 21 22 21 22 23 27 33 42 53 50 52 47 29 21 22 16 14 12 15 14 14 18
24 31 31 18 5 11 22 15 13 13 11 9 9 10 19 30 41 47 47 47 36 32 28 23 23 22 20 23 23 22 22 19 21 19 26 30 42 37 26 20 17 16 14 12 14 12 11
44 28 24 30 21 6 15 23 20 15 13 11 9 9 10 19 32 43 46 49 46 45 41 40 34 29 23 23 24 23 27 32 33 27 23 26 29 30 25 20 8 10 16 18 15 10 10
96 56 25 23 29 24 10 16 25 25 17 13 11 10 10 9 15 23 44 46 47 53 52 48 45 35 31 27 28 28 24 27 20 21 26 22 18 18 25 25 15 13 16 18 14 14 12
100 88 67 79 28 26 29 22 24 31 28 19 14 12 10 10 11 14 25 28 42 51 55 55 46 41 30 28 32 31 30 25 27 25 24 24 16 19 15 14 17 21 24 23 22 23 22

GFSGBSN_700_rhum_144.txt.gz
RH
10 9 10 10 10 19 22 27 24 25 32 34 36 33 28 20 24 29 32 36 39 50 72 64 70 73 70 74 66 63 51 49 83 72 96 100 98 93 48 34 35 44 40 24 17 18 14
10 9 9 11 11 17 24 28 27 27 31 35 37 34 23 32 42 48 56 67 75 66 74 77 82 90 94 92 82 76 66 57 57 86 98 98 99 93 52 40 39 57 58 33 19 44 36
8 9 9 12 12 14 26 26 31 30 29 34 40 38 28 44 51 59 62 75 79 80 85 95 97 96 99 95 91 83 75 62 65 81 99 98 99 98 66 72 56 66 57 40 22 38 54
9 8 9 10 14 12 27 25 34 33 32 33 39 41 40 39 48 57 63 68 92 79 88 97 97 89 96 97 98 98 91 83 75 85 93 98 88 96 96 72 81 62 56 46 37 38 49
13 9 8 10 13 12 20 30 29 36 35 37 38 45 48 48 51 56 64 67 85 76 82 82 84 83 100 96 98 97 98 98 99 90 96 98 100 98 100 88 75 63 58 57 54 46 47
20 14 9 9 11 15 14 30 26 35 39 41 41 44 51 55 57 59 67 70 77 82 79 84 91 77 92 97 98 98 98 97 99 96 98 97 99 96 98 90 67 60 56 58 55 54 52
25 23 14 9 10 12 15 17 32 27 38 42 45 47 50 56 60 60 67 72 78 79 97 98 91 90 99 95 94 97 91 98 98 100 88 96 98 97 87 80 38 49 52 56 56 52 51
22 28 26 14 10 10 13 16 17 32 29 41 46 49 53 56 60 61 66 71 82 85 90 98 99 100 100 93 98 98 93 98 92 84 99 98 98 88 85 80 55 43 47 52 54 51 46
20 25 31 26 13 10 11 13 14 19 33 33 45 49 50 55 58 65 68 70 81 86 93 96 90 98 94 99 99 93 98 94 82 70 91 93 96 97 79 70 56 45 40 44 48 52 40
15 20 27 33 25 12 11 12 14 14 26 31 43 48 48 53 60 61 67 82 84 89 90 96 97 93 98 100 96 100 98 97 99 97 97 97 86 94 74 60 51 40 31 36 34 37 29
10 18 22 28 34 22 11 11 12 14 17 30 38 48 48 54 59 64 66 78 80 86 90 95 98 95 96 82 78 96 99 99 98 88 86 98 95 95 66 58 52 36 28 23 28 27 25
9 12 20 23 31 36 20 11 12 13 14 24 33 44 48 54 57 65 70 76 78 76 94 92 97 99 99 90 70 77 94 98 97 98 88 96 95 84 76 62 50 42 36 30 29 29 38
7 10 17 22 21 36 40 19 12 11 14 15 32 36 49 53 55 65 73 76 85 86 92 94 98 99 93 97 99 78 90 100 99 96 100 95 86 76 75 70 58 53 40 45 52 52 62
4 11 13 19 20 27 43 42 18 12 12 14 19 34 46 51 50 57 63 69 88 94 98 97 98 98 97 100 100 80 84 94 90 85 95 95 84 64 61 62 55 51 35 38 59 68 61
5 6 11 14 20 21 36 44 39 16 13 14 15 27 42 49 49 55 65 62 77 93 92 96 95 96 98 98 97 96 98 95 83 76 66 86 69 65 60 56 55 50 39 33 31 47 50
7 4 11 11 17 19 27 34 44 29 16 13 15 20 34 48 53 56 62 65 71 76 84 87 87 92 96 94 94 95 94 90 76 64 60 61 64 64 61 57 57 51 43 39 36 56 43
8 6 8 11 12 19 19 24 35 44 21 14 16 18 23 40 49 50 59 70 73 84 89 91 85 86 83 84 77 79 85 86 74 65 55 53 54 63 58 54 52 49 46 36 40 38 61
8 7 5 13 10 16 18 19 28 40 31 17 15 18 18 26 37 44 47 64 76 88 90 83 79 81 78 75 72 68 79 74 82 71 61 53 50 58 55 49 46 45 44 38 33 38 50
10 9 6 11 12 11 17 18 23 29 43 27 16 17 17 19 26 41 42 45 58 74 85 73 67 79 81 78 73 66 70 69 66 63 67 63 50 57 54 48 40 40 38 39 34 31 39
14 16 9 6 14 10 13 16 18 22 37 40 24 18 18 19 17 24 30 43 51 52 63 78 72 69 69 66 68 69 62 65 62 62 64 62 46 42 46 40 38 35 34 28 32 30 26
26 23 15 6 15 13 10 13 17 16 25 37 37 23 20 18 17 20 21 23 34 49 57 64 70 70 67 65 62 65 63 61 61 59 57 59 57 44 39 35 31 29 28 27 25 26 25
35 28 20 9 10 16 12 10 12 15 14 26 39 36 28 27 18 21 22 22 23 24 31 47 60 61 68 65 61 54 53 57 62 57 54 53 52 45 48 44 37 31 29 29 25 23 24
41 35 26 15 7 17 14 11 9 11 12 12 27 40 41 41 28 23 24 21 22 23 24 23 30 46 64 63 56 52 49 56 58 48 51 44 44 44 43 39 41 37 27 19 22 24 22
40 40 33 20 10 12 17 14 11 9 9 11 15 32 42 42 40 35 33 24 22 22 24 23 22 24 25 34 64 56 50 50 47 48 46 45 45 41 27 31 45 23 18 17 16 18 20
28 38 37 28 14 8 18 16 14 11 10 9 10 18 30 36 43 42 46 41 25 24 23 23 24 23 23 24 29 31 49 60 51 52 51 50 51 39 27 26 20 18 15 17 18 15 14
56 27 36 35 22 9 10 19 15 14 12 10 9 10 16 24 35 40 46 48 38 33 31 25 25 25 24 24 24 22 19 20 20 26 47 45 50 48 30 24 15 12 15 12 12 12 12
92 57 27 31 33 16 6 13 21 17 14 12 11 10 10 14 19 33 40 46 46 45 44 42 36 32 28 26 26 26 26 28 33 26 22 38 38 46 42 25 11 9 14 19 16 11 10
100 94 41 27 29 34 15 7 14 23 20 15 13 12 10 11 12 15 20 42 46 48 53 49 48 41 34 30 28 29 26 26 24 22 27 23 21 21 34 26 14 13 14 18 16 15 16
99 100 96 68 30 29 33 22 9 16 27 25 19 15 13 12 11 12 15 22 22 35 54 56 52 42 33 30 30 32 29 26 27 27 26 25 17 17 13 12 12 22 24 25 23 23 24